Simultaneous Nadir Overpasses (SNOs) Predictions

Prediction of SNOs between GOES-16 and METOP-B Satellite Orbit:

Table of predicted SNOs for the next 14.0 days since TLE Epoch: 7/15/2023
Index Date Time (GOES-16) GOES-16 Lat,Lon METOP-B Lat,Lon Distance(km) Time Diff (sec)
1 07/16/2023 14:43:31 0.02, -75.20 0.68, -78.13 333.85 80
2 07/17/2023 14:20:11 0.01, -75.20 -0.43, -73.14 235.28 80
3 07/19/2023 02:41:50 -0.00, -75.20 -0.55, -77.74 288.68 80
4 07/20/2023 02:18:29 0.01, -75.21 0.57, -72.74 281.01 80
5 07/21/2023 14:40:00 -0.01, -75.22 0.43, -77.30 236.84 80
6 07/22/2023 14:16:39 -0.02, -75.23 -0.69, -72.31 333.43 80
7 07/24/2023 02:38:18 0.02, -75.24 -0.34, -76.90 188.85 80
8 07/25/2023 02:14:57 0.02, -75.25 0.78, -71.90 381.86 80
9 07/26/2023 14:36:26 -0.01, -75.28 0.27, -76.45 134.65 80
10 07/27/2023 14:13:06 0.00, -75.29 -0.86, -71.46 436.37 80
